CWI115 LHDC-LHBP

Flight info

Callsign CWI115
Flight time N/A
Altitude 22000
Route PERIT DCT RIGSA DCT BETED
Aircraft B738/M-SDE2E3FGHIRWXY/LB1

Departure

Time 2026-05-06 15:35
Airport Debrecen International Airport (LHDC)

Arrival

Time N/A
Airport Budapest Liszt Ferenc International Airport (LHBP)
Time Latitude Longitude Altitude Speed Heading
2026-05-06 15:20 47.49013 21.60752 366 ft 0 kts 99°
2026-05-06 15:27 47.49011 21.60796 366 ft 8 kts 81°
2026-05-06 15:27 47.49035 21.60872 368 ft 8 kts 56°
2026-05-06 15:27 47.49067 21.60941 366 ft 8 kts 56°
2026-05-06 15:28 47.49100 21.61006 369 ft 8 kts 52°
2026-05-06 15:28 47.49132 21.61068 367 ft 8 kts 53°
2026-05-06 15:28 47.49170 21.61142 366 ft 9 kts 54°
2026-05-06 15:28 47.49209 21.61218 366 ft 9 kts 43°
2026-05-06 15:29 47.49258 21.61276 366 ft 9 kts 39°
2026-05-06 15:29 47.49306 21.61333 369 ft 9 kts 39°
2026-05-06 15:29 47.49352 21.61386 368 ft 8 kts 37°
2026-05-06 15:29 47.49398 21.61437 368 ft 8 kts 37°
2026-05-06 15:30 47.49443 21.61487 367 ft 8 kts 39°
2026-05-06 15:30 47.49518 21.61574 367 ft 21 kts 37°
2026-05-06 15:30 47.49604 21.61674 366 ft 15 kts 38°
2026-05-06 15:30 47.49668 21.61786 366 ft 14 kts 53°
2026-05-06 15:31 47.49717 21.61905 369 ft 13 kts 58°
2026-05-06 15:31 47.49766 21.62018 367 ft 13 kts 57°
2026-05-06 15:31 47.49813 21.62129 366 ft 13 kts 58°
2026-05-06 15:32 47.49901 21.62342 369 ft 12 kts 67°
2026-05-06 15:32 47.49872 21.62445 368 ft 12 kts 136°
2026-05-06 15:32 47.49815 21.62524 367 ft 11 kts 137°
2026-05-06 15:32 47.49758 21.62601 366 ft 11 kts 138°
2026-05-06 15:33 47.49718 21.62653 366 ft 0 kts 138°
2026-05-06 15:34 47.49706 21.62668 366 ft 7 kts 138°
2026-05-06 15:34 47.49637 21.62716 371 ft 15 kts 192°
2026-05-06 15:34 47.49517 21.62550 369 ft 54 kts 227°
2026-05-06 15:35 47.49046 21.61798 368 ft 140 kts 226°
2026-05-06 15:35 47.48258 21.60492 591 ft 194 kts 229°
2026-05-06 15:35 47.47339 21.58839 1190 ft 224 kts 229°
2026-05-06 15:35 47.46310 21.57189 2471 ft 210 kts 225°
2026-05-06 15:36 47.45321 21.55780 3780 ft 188 kts 213°
2026-05-06 15:36 47.44073 21.55287 4539 ft 197 kts 177°
2026-05-06 15:36 47.42763 21.56158 4704 ft 223 kts 140°
2026-05-06 15:36 47.41941 21.58218 4900 ft 248 kts 107°
2026-05-06 15:37 47.41998 21.60788 5253 ft 263 kts 72°
2026-05-06 15:37 47.43094 21.62924 5737 ft 267 kts 33°
2026-05-06 15:37 47.44821 21.63912 6230 ft 267 kts 12°
2026-05-06 15:37 47.46625 21.64675 6677 ft 275 kts 17°
2026-05-06 15:38 47.48469 21.65689 6946 ft 292 kts 20°
2026-05-06 15:38 47.50375 21.66848 7687 ft 294 kts 22°
2026-05-06 15:38 47.52245 21.68119 8445 ft 297 kts 25°
2026-05-06 15:38 47.54101 21.69423 9010 ft 301 kts 17°
2026-05-06 15:39 47.56165 21.69713 9772 ft 297 kts 349°
2026-05-06 15:39 47.58203 21.69122 10450 ft 302 kts 345°
2026-05-06 15:39 47.60308 21.68407 10645 ft 325 kts 345°
2026-05-06 15:39 47.62592 21.67627 10827 ft 347 kts 345°
2026-05-06 15:40 47.64193 21.67086 10933 ft 362 kts 345°
2026-05-06 15:40 47.67572 21.65966 11277 ft 383 kts 345°
2026-05-06 15:40 47.69351 21.65384 11622 ft 388 kts 346°
2026-05-06 15:40 47.71968 21.64532 12292 ft 391 kts 346°